Hourly Weather Abejuela

Today, 5 August, Thursday

Time Temperature Precipitation Wind Pressure Humidity
00:00 +18°C° 0 mm 1 mps 652 mmHg 68%
01:00 +18°C° 0 mm 1 mps 652 mmHg 69%
02:00 +15°C° 0 mm 0 mps 652 mmHg 71%
03:00 +15°C° 0 mm 0 mps 651 mmHg 72%
04:00 +15°C° 0 mm 0 mps 651 mmHg 71%
05:00 +15°C° 0 mm 0 mps 652 mmHg 70%
06:00 +16°C° 0 mm 0 mps 652 mmHg 71%
07:00 +20°C° 0 mm 1 mps 652 mmHg 60%
08:00 +22°C° 0 mm 1 mps 653 mmHg 49%
09:00 +24°C° 0 mm 2 mps 653 mmHg 38%
10:00 +26°C° 0 mm 3 mps 653 mmHg 33%
11:00 +28°C° 0 mm 3 mps 654 mmHg 28%
12:00 +30°C° 0 mm 4 mps 654 mmHg 22%
13:00 +30°C° 0 mm 4 mps 653 mmHg 21%
14:00 +32°C° 0 mm 5 mps 653 mmHg 20%
15:00 +33°C° 0 mm 5 mps 653 mmHg 19%
16:00 +30°C° 0 mm 5 mps 652 mmHg 22%
17:00 +29°C° 0 mm 4 mps 652 mmHg 26%
18:00 +28°C° 0 mm 4 mps 651 mmHg 30%
19:00 +26°C° 0 mm 3 mps 651 mmHg 35%
20:00 +24°C° 0 mm 2 mps 651 mmHg 40%
21:00 +22°C° 0 mm 1 mps 650 mmHg 45%
22:00 +22°C° 0 mm 1 mps 650 mmHg 43%
23:00 +21°C° 0 mm 1 mps 650 mmHg 41%

Tomorrow, 6 August, Friday

Time Temperature Precipitation Wind Pressure Humidity
00:00 +21°C° 0 mm 1 mps 650 mmHg 39%
01:00 +21°C° 0 mm 1 mps 649 mmHg 37%
02:00 +20°C° 0 mm 1 mps 649 mmHg 35%
03:00 +20°C° 0 mm 1 mps 649 mmHg 33%
04:00 +20°C° 0 mm 1 mps 649 mmHg 34%
05:00 +20°C° 0 mm 1 mps 649 mmHg 35%
06:00 +20°C° 0 mm 1 mps 649 mmHg 36%
07:00 +21°C° 0 mm 2 mps 650 mmHg 35%
08:00 +24°C° 0 mm 2 mps 650 mmHg 35%
09:00 +25°C° 0 mm 3 mps 651 mmHg 34%
10:00 +27°C° 0 mm 4 mps 651 mmHg 31%
11:00 +29°C° 0 mm 5 mps 651 mmHg 27%
12:00 +30°C° 0 mm 6 mps 651 mmHg 24%
13:00 +30°C° 0 mm 6 mps 651 mmHg 25%
14:00 +32°C° 0 mm 6 mps 650 mmHg 27%
15:00 +32°C° 0 mm 6 mps 650 mmHg 28%
16:00 +29°C° 0 mm 6 mps 649 mmHg 34%
17:00 +28°C° 0 mm 5 mps 649 mmHg 40%
18:00 +26°C° 0 mm 4 mps 648 mmHg 46%
19:00 +24°C° 0 mm 3 mps 648 mmHg 57%
20:00 +21°C° 0 mm 2 mps 648 mmHg 68%
21:00 +20°C° 0 mm 1 mps 647 mmHg 79%
22:00 +20°C° 0 mm 1 mps 647 mmHg 79%
23:00 +20°C° 0 mm 1 mps 647 mmHg 79%

Day after tomorrow, 7 August, Saturday

Time Temperature Precipitation Wind Pressure Humidity
00:00 +19°C° 0 mm 1 mps 647 mmHg 80%
01:00 +19°C° 0 mm 1 mps 646 mmHg 76%
02:00 +19°C° 0 mm 1 mps 646 mmHg 72%
03:00 +19°C° 0 mm 1 mps 646 mmHg 68%
04:00 +18°C° 0 mm 2 mps 646 mmHg 59%
05:00 +18°C° 0 mm 2 mps 646 mmHg 49%
06:00 +18°C° 0 mm 2 mps 646 mmHg 39%
07:00 +20°C° 0 mm 4 mps 647 mmHg 33%
08:00 +21°C° 0 mm 5 mps 647 mmHg 26%
09:00 +23°C° 0 mm 6 mps 648 mmHg 19%
10:00 +26°C° 0 mm 6 mps 648 mmHg 19%
11:00 +27°C° 0 mm 7 mps 649 mmHg 19%
12:00 +28°C° 0 mm 7 mps 649 mmHg 20%
13:00 +29°C° 0 mm 7 mps 649 mmHg 18%
14:00 +29°C° 0 mm 8 mps 649 mmHg 17%
15:00 +29°C° 0 mm 8 mps 649 mmHg 15%
16:00 +28°C° 0 mm 7 mps 649 mmHg 15%
17:00 +27°C° 0 mm 7 mps 649 mmHg 15%
18:00 +26°C° 0 mm 7 mps 649 mmHg 15%
19:00 +23°C° 0 mm 5 mps 649 mmHg 18%
20:00 +21°C° 0 mm 4 mps 649 mmHg 21%
21:00 +19°C° 0 mm 2 mps 649 mmHg 24%
22:00 +19°C° 0 mm 2 mps 649 mmHg 26%
23:00 +18°C° 0 mm 2 mps 649 mmHg 29%

8 August, Sunday

Time Temperature Precipitation Wind Pressure Humidity
00:00 +18°C° 0 mm 1 mps 649 mmHg 31%
01:00 +18°C° 0 mm 1 mps 649 mmHg 34%
02:00 +16°C° 0 mm 2 mps 649 mmHg 38%
03:00 +16°C° 0 mm 2 mps 649 mmHg 41%
04:00 +15°C° 0 mm 2 mps 650 mmHg 50%
05:00 +15°C° 0 mm 1 mps 650 mmHg 59%
06:00 +15°C° 0 mm 1 mps 650 mmHg 68%
07:00 +16°C° 0 mm 2 mps 651 mmHg 67%
08:00 +17°C° 0 mm 3 mps 652 mmHg 67%
09:00 +19°C° 0 mm 4 mps 652 mmHg 66%
10:00 +20°C° 0 mm 4 mps 652 mmHg 62%
11:00 +21°C° 0 mm 4 mps 653 mmHg 59%
12:00 +22°C° 0 mm 5 mps 653 mmHg 55%
13:00 +21°C° 0 mm 5 mps 653 mmHg 56%
14:00 +21°C° 0 mm 5 mps 653 mmHg 58%
15:00 +21°C° 0 mm 5 mps 653 mmHg 59%
16:00 +21°C° 0 mm 4 mps 653 mmHg 61%
17:00 +20°C° 0 mm 4 mps 652 mmHg 62%
18:00 +20°C° 0 mm 4 mps 652 mmHg 64%
19:00 +19°C° 0 mm 3 mps 652 mmHg 72%
20:00 +17°C° 0 mm 2 mps 652 mmHg 79%
21:00 +16°C° 0 mm 2 mps 652 mmHg 87%
22:00 +16°C° 0 mm 1 mps 652 mmHg 88%
23:00 +15°C° 0 mm 1 mps 652 mmHg 89%

9 August, Monday

Time Temperature Precipitation Wind Pressure Humidity
00:00 +15°C° 0 mm 1 mps 652 mmHg 89%
01:00 +15°C° 0 mm 1 mps 652 mmHg 89%
02:00 +15°C° 0 mm 1 mps 652 mmHg 89%
03:00 +14°C° 0 mm 1 mps 652 mmHg 89%
04:00 +14°C° 0 mm 1 mps 652 mmHg 88%
05:00 +15°C° 0 mm 1 mps 652 mmHg 87%
06:00 +14°C° 0 mm 0 mps 653 mmHg 86%
07:00 +16°C° 0 mm 1 mps 653 mmHg 77%
08:00 +18°C° 0 mm 2 mps 654 mmHg 69%
09:00 +20°C° 0 mm 2 mps 655 mmHg 60%
10:00 +21°C° 0 mm 3 mps 655 mmHg 55%
11:00 +23°C° 0 mm 4 mps 655 mmHg 49%
12:00 +25°C° 0 mm 4 mps 656 mmHg 44%
13:00 +25°C° 0 mm 5 mps 656 mmHg 44%
14:00 +25°C° 0 mm 5 mps 655 mmHg 45%
15:00 +26°C° 0 mm 5 mps 655 mmHg 45%
16:00 +23°C° 0 mm 4 mps 655 mmHg 50%
17:00 +22°C° 0 mm 4 mps 654 mmHg 54%
18:00 +20°C° 0 mm 3 mps 654 mmHg 58%
19:00 +19°C° 0 mm 2 mps 654 mmHg 63%
20:00 +18°C° 0 mm 2 mps 654 mmHg 67%
21:00 +18°C° 0 mm 1 mps 654 mmHg 71%
22:00 +18°C° 0 mm 1 mps 654 mmHg 73%
23:00 +16°C° 0 mm 1 mps 654 mmHg 75%

10 August, Tuesday

Time Temperature Precipitation Wind Pressure Humidity
00:00 +16°C° 0 mm 1 mps 654 mmHg 77%
01:00 +16°C° 0 mm 1 mps 654 mmHg 75%
02:00 +16°C° 0 mm 1 mps 653 mmHg 73%
03:00 +15°C° 0 mm 0 mps 653 mmHg 71%
04:00 +15°C° 0.1 mm 0 mps 653 mmHg 69%
05:00 +16°C° 0.1 mm 0 mps 653 mmHg 67%
06:00 +16°C° 0.1 mm 0 mps 654 mmHg 65%
07:00 +19°C° 0 mm 1 mps 654 mmHg 58%
08:00 +21°C° 0 mm 1 mps 655 mmHg 51%
09:00 +21°C° 0 mm 2 mps 655 mmHg 44%
10:00 +24°C° 0 mm 3 mps 655 mmHg 40%
11:00 +25°C° 0 mm 4 mps 656 mmHg 36%
12:00 +27°C° 0 mm 5 mps 656 mmHg 32%
13:00 +27°C° 0 mm 5 mps 656 mmHg 31%
14:00 +27°C° 0 mm 5 mps 655 mmHg 30%
15:00 +27°C° 0 mm 5 mps 655 mmHg 30%
16:00 +26°C° 0 mm 4 mps 655 mmHg 32%
17:00 +25°C° 0 mm 3 mps 654 mmHg 34%
18:00 +24°C° 0 mm 3 mps 654 mmHg 37%
19:00 +23°C° 0 mm 2 mps 654 mmHg 42%
20:00 +21°C° 0 mm 1 mps 653 mmHg 48%
21:00 +19°C° 0 mm 1 mps 653 mmHg 54%
22:00 +19°C° 0 mm 1 mps 653 mmHg 54%
23:00 +19°C° 0 mm 1 mps 653 mmHg 54%
Show more

We Need Your Consent

Meteoprog and our Service Providers may store and access personal data such as cookies, device identifiers or other similar technologies on your device and process such data to personalise content and ads, as well as provide social media features and to analyse the traffic.

  • Store and/or access information on your device

    Cookies, device identifiers or other information can be stored or accessed on your device for the purposes indicated above.

  • Personalised ads and content, ad and content measurement, audience insights, and products development

    Ads and content can be personalised based on a profile. More data can be added to better personalise ads and content. Ad and content performance can be measured. Insights about the audience who saw the ads and content can be derived. Such data can be used to develop or improve user’s experience, systems and software.

By clicking ‘I Agree’ you will allow the use of indicated cookies, device identifiers, web beacons or other similar technologies. Your settings can be changed in the browser on your device.

For certain purposes, legitimate interests may be relied on, rather than consent. You can read more about this in our Privacy and Cookie Policy.